Location: Chefe Valiua
(16.5342°S, 37.2214°E)
Time: 00:21:44
(UTC+00:00)

Cosmos 1943 Rocket - Pass Details

Date: 19 January 2021
Orbit: 810 x 845 km, 71.0° (Epoch: 07 March)

Event Time Altitude Azimuth Distance (km) Brightness Sun altitude
Rises 18:31:44 0° 213° (SSW) 3,343 6.3 -30.6°
Reaches altitude 10° 18:34:25 10° 224° (SW) 2,405 5.4 -31.1°
Maximum altitude 18:39:09 30° 283° (WNW) 1,425 3.6 -32.0°
Enters shadow 18:39:53 29° 298° (WNW) 1,456 3.6 -32.2°
